INMARSAT 5-F3

Last updated on Nov. 15, 2019, 4:20 a.m. UTC

1 40882U 15042A   19318.50408226  .00000064  00000-0  00000+0 0  9992
2 40882   0.0178 293.4044 0000359 208.3320 272.6667  1.00272083 15422
UTC
Height (km)
Latitude
Longitude
Inclination
Orbital Period
UTC large
Height (km)
Speed (km/s)
/
Latitude / Longitude
Inclination (degrees)
Orbital Period (minutes)
Azimuth
Elevation
Range (km)
Doppler Factor
iOS Compass Heading
iOS Angle

Next 30 passes for location: Hong Kong

Rise time Rise Azimuth (degrees) Set time Set Azimuth (degrees) Duration Max altitude (degrees)

No matching passes for this satellites